Location: Unspecified
(47.3532°N, 122.5883°W)
Time: 12:16:41
(UTC-08:00)

CZ-3 Stage 3 - Visible Passes

Search period start: 17 January 2018 00:00
Search period end: 27 January 2018 00:00
Orbit: 426 x 34771 km, 31.0° (Epoch: 17 January)

Date Brightness Start Highest point End Pass type
(mag) Time Alt. Az. Time Alt. Az. Time Alt. Az.
18 Jan 5.2 18:00:11 10° SSW 18:06:15 14° S 18:09:37 10° SSE visible
19 Jan 7.1 13:48:08 10° S 14:15:17 13° S 14:26:28 10° SSE visible
21 Jan 5.2 17:49:57 10° SW 17:56:57 15° S 18:00:32 10° SSE visible
22 Jan 7.0 13:31:33 10° S 14:06:17 14° SSE 14:18:29 10° SE visible
24 Jan 5.2 17:39:45 10° SW 17:47:36 15° S 17:51:23 10° SSE visible
25 Jan 7.0 13:14:42 10° S 13:57:15 15° SSE 14:10:11 10° SE visible
